This is the latest recevied weather packets stored in our database for station/object N5GMJ. If no packets are shown the sender has not sent any weather packets the latest 10 day(s).
| Time | Temp. | Humidity | Pressure | Rain* | Wind** | Luminosity | Snow |
|---|---|---|---|---|---|---|---|
| 1776903384 | 23.33° C | 81% | 1012.8 hPa | 0 mm | - | - | - |
| 1776903081 | 23.89° C | 81% | 1012.6 hPa | 0 mm | - | - | - |
| 1776902778 | 23.89° C | 79% | 1012.5 hPa | 0 mm | - | - | - |
| 1776902475 | 23.89° C | 79% | 1012.7 hPa | 0 mm | - | - | - |
| 1776902172 | 23.89° C | 79% | 1012.6 hPa | 0 mm | - | - | - |
| 1776901868 | 23.89° C | 80% | 1012.7 hPa | 0 mm | - | - | - |
| 1776901563 | 23.89° C | 80% | 1012.8 hPa | 0 mm | - | - | - |
| 1776901260 | 23.89° C | 80% | 1012.9 hPa | 0 mm | - | - | - |
| 1776900957 | 23.89° C | 81% | 1012.9 hPa | 0 mm | - | - | - |
| 1776900657 | 23.89° C | 81% | 1013 hPa | 0 mm | - | - | - |
| 1776900353 | 24.44° C | 81% | 1013.1 hPa | 0 mm | - | - | - |
| 1776900051 | 23.89° C | 81% | 1013 hPa | 0 mm | - | - | - |
| 1776899748 | 23.89° C | 82% | 1013 hPa | 0 mm | - | - | - |
| 1776899445 | 23.89° C | 82% | 1013.1 hPa | 0 mm | - | - | - |
| 1776899142 | 23.89° C | 83% | 1013.1 hPa | 0 mm | - | - | - |
| 1776898838 | 23.33° C | 82% | 1013.2 hPa | 0 mm | - | - | - |
| 1776898535 | 23.89° C | 82% | 1013.2 hPa | 0 mm | - | - | - |
| 1776898231 | 23.89° C | 82% | 1013.5 hPa | 0 mm | - | - | - |
| 1776897929 | 23.33° C | 83% | 1013.4 hPa | 0 mm | - | - | - |
| 1776897626 | 23.33° C | 83% | 1013.5 hPa | 0 mm | - | - | - |
| 1776897323 | 23.33° C | 83% | 1013.7 hPa | 0 mm | - | - | - |
| 1776897021 | 23.33° C | 82% | 1013.6 hPa | 0 mm | - | - | - |
| 1776896717 | 23.33° C | 84% | 1013.9 hPa | 0 mm | - | - | - |
| 1776896414 | 22.78° C | 85% | 1014.1 hPa | 0 mm | - | - | - |
| 1776896110 | 22.78° C | 85% | 1013.7 hPa | 0 mm | - | - | - |
* Rain latest hour (hover to see other rain measurements)
** Current wind speed in m/s (hover to see current wind gust speed)